* Astronomy

Members Login
Post Info TOPIC: Asteroid 2003 WX87


L

Posts: 131433
Date:
Asteroid 2003 WX87
Permalink  
 


Orbital elements:
2003 WX87 Earth MOID = 0.2120 AU
Epoch 2010 July 23.0 TT = JDT 2455400.5 MPC
M 339.62716 (2000.0) P Q
n 0.28237130 Peri. 324.38083 +0.43944373 -0.87024751
a 2.3010303 Node 98.60382 +0.86747771 +0.34680808
e 0.4939953 Incl. 13.01176 +0.23317725 +0.34984771
P 3.49 H 18.5 G 0.15 U 2

MPEC 2010 - O16


__________________
Page 1 of 1  sorted by
 
Quick Reply

Please log in to post quick replies.



Create your own FREE Forum
Report Abuse
Powered by ActiveBoard